Volver al catálogo

STARLINK-2538

ActivoComunicacionesVLEO
NORAD 48300·PAYLOAD·🇺🇸 United States

Lanzado Apr 29, 2021 desde Cape Canaveral Space Force Station

Loading…

Próximos Pases (próximas 24 horas)

TLE

ActualizadoSource: CelesTrak SupGP

Época: Sep 14, 2026, 21:29 UTC

1 48300C 21036AA  26257.89562500  .00037216  00000+0  11965-2 0  2573
2 48300  53.1576 287.6411 0001135  86.2071 227.0482 15.31691448    15

Sigue STARLINK-2538 en tiempo real con AllMySat

Download on the App Store